Time,TemperatureF,DewpointF,PressureIn,WindDirection,WindDirectionDegrees,WindSpeedMPH,WindSpeedGustMPH,Humidity,HourlyPrecipIn,Conditions,Clouds,dailyrainin,SoftwareType,DateUTC
2013-06-28 00:04:00,73.8,64.6,28.44,WSW,257,0.0,0.0,73,0.00,,---,0.00,VWS V14.01,2013-06-28 05:04:00,
2013-06-28 00:09:00,73.6,64.4,28.44,WNW,285,0.0,4.0,73,0.00,,---,0.00,VWS V14.01,2013-06-28 05:09:00,
2013-06-28 00:14:00,73.6,64.4,28.44,WNW,285,0.0,4.0,73,0.00,,---,0.00,VWS V14.01,2013-06-28 05:14:00,
2013-06-28 00:19:00,73.6,64.4,28.44,WNW,285,0.0,4.0,73,0.00,,---,0.00,VWS V14.01,2013-06-28 05:19:00,
2013-06-28 00:24:00,73.6,64.4,28.44,WNW,285,0.0,4.0,73,0.00,,---,0.00,VWS V14.01,2013-06-28 05:24:00,
2013-06-28 00:29:00,73.4,64.2,28.44,WNW,285,0.0,4.0,73,0.00,,---,0.00,VWS V14.01,2013-06-28 05:29:00,
2013-06-28 00:34:00,73.4,64.2,28.44,WNW,285,0.0,4.0,73,0.00,,---,0.00,VWS V14.01,2013-06-28 05:34:00,
2013-06-28 00:39:00,73.2,64.4,28.44,WNW,285,0.0,4.0,74,0.00,,---,0.00,VWS V14.01,2013-06-28 05:39:00,
2013-06-28 00:45:00,73.0,64.3,28.44,WNW,285,0.0,4.0,74,0.00,,---,0.00,VWS V14.01,2013-06-28 05:45:00,
2013-06-28 00:50:00,72.9,64.1,28.44,WNW,285,0.0,4.0,74,0.00,,---,0.00,VWS V14.01,2013-06-28 05:50:00,
2013-06-28 00:55:00,72.9,64.1,28.44,WNW,285,0.0,4.0,74,0.00,,---,0.00,VWS V14.01,2013-06-28 05:55:00,
2013-06-28 01:00:00,72.7,63.9,28.44,WNW,285,0.0,0.0,74,0.00,,---,0.00,VWS V14.01,2013-06-28 06:00:00,
2013-06-28 01:05:00,72.5,64.1,28.44,WNW,285,0.0,0.0,75,0.00,,---,0.00,VWS V14.01,2013-06-28 06:05:00,
2013-06-28 01:10:00,72.3,64.0,28.44,WNW,285,0.0,0.0,75,0.00,,---,0.00,VWS V14.01,2013-06-28 06:10:00,
2013-06-28 01:15:00,72.1,63.8,28.44,WNW,285,0.0,0.0,75,0.00,,---,0.00,VWS V14.01,2013-06-28 06:15:00,
2013-06-28 01:21:00,72.0,63.6,28.44,WNW,285,0.0,0.0,75,0.00,,---,0.00,VWS V14.01,2013-06-28 06:21:00,
2013-06-28 01:26:00,72.0,63.6,28.44,WNW,285,0.0,0.0,75,0.00,,---,0.00,VWS V14.01,2013-06-28 06:26:00,
2013-06-28 01:31:00,71.8,63.8,28.44,WNW,285,0.0,0.0,76,0.00,,---,0.00,VWS V14.01,2013-06-28 06:31:00,
2013-06-28 01:36:00,71.8,63.8,28.44,WNW,285,0.0,0.0,76,0.00,,---,0.00,VWS V14.01,2013-06-28 06:36:00,
2013-06-28 01:41:00,71.8,63.8,28.44,WNW,285,0.0,0.0,76,0.00,,---,0.00,VWS V14.01,2013-06-28 06:41:00,
2013-06-28 01:46:00,71.6,63.6,28.44,WNW,285,0.0,0.0,76,0.00,,---,0.00,VWS V14.01,2013-06-28 06:46:00,
2013-06-28 01:51:00,71.4,63.8,28.44,WNW,285,0.0,0.0,77,0.00,,---,0.00,VWS V14.01,2013-06-28 06:51:00,
2013-06-28 01:56:00,71.4,63.8,28.44,WNW,285,0.0,0.0,77,0.00,,---,0.00,VWS V14.01,2013-06-28 06:56:00,
2013-06-28 02:02:00,71.2,63.7,28.44,WNW,285,0.0,0.0,77,0.00,,---,0.00,VWS V14.01,2013-06-28 07:02:00,
2013-06-28 02:07:00,71.1,63.5,28.44,WNW,285,0.0,0.0,77,0.00,,---,0.00,VWS V14.01,2013-06-28 07:07:00,
2013-06-28 02:12:00,71.1,63.9,28.44,WNW,285,0.0,0.0,78,0.00,,---,0.00,VWS V14.01,2013-06-28 07:12:00,
2013-06-28 02:17:00,71.1,63.9,28.44,WNW,285,0.0,0.0,78,0.00,,---,0.00,VWS V14.01,2013-06-28 07:17:00,
2013-06-28 02:22:00,70.9,63.7,28.44,WNW,285,0.0,0.0,78,0.00,,---,0.00,VWS V14.01,2013-06-28 07:22:00,
2013-06-28 02:27:00,70.7,63.5,28.44,WNW,285,0.0,0.0,78,0.00,,---,0.00,VWS V14.01,2013-06-28 07:27:00,
2013-06-28 02:32:00,70.5,63.7,28.44,WNW,285,0.0,0.0,79,0.00,,---,0.00,VWS V14.01,2013-06-28 07:32:00,
2013-06-28 02:37:00,70.3,63.5,28.44,WNW,285,0.0,0.0,79,0.00,,---,0.00,VWS V14.01,2013-06-28 07:37:00,
2013-06-28 02:43:00,70.3,63.9,28.44,WNW,284,2.7,3.6,80,0.00,,---,0.00,VWS V14.01,2013-06-28 07:43:00,
2013-06-28 02:48:00,70.3,64.6,28.44,West,263,4.0,4.0,82,0.00,,---,0.00,VWS V14.01,2013-06-28 07:48:00,
2013-06-28 02:53:00,70.5,64.8,28.44,West,259,3.1,4.0,82,0.00,,---,0.00,VWS V14.01,2013-06-28 07:53:00,
2013-06-28 02:58:00,70.5,64.4,28.44,West,265,2.2,4.9,81,0.00,,---,0.00,VWS V14.01,2013-06-28 07:58:00,
2013-06-28 03:03:00,70.3,64.2,28.44,West,265,0.0,0.0,81,0.00,,---,0.00,VWS V14.01,2013-06-28 08:03:00,
2013-06-28 03:08:00,70.2,64.1,28.44,West,265,0.0,0.0,81,0.00,,---,0.00,VWS V14.01,2013-06-28 08:08:00,
2013-06-28 03:13:00,70.0,63.9,28.44,West,265,0.0,0.0,81,0.00,,---,0.00,VWS V14.01,2013-06-28 08:13:00,
2013-06-28 03:18:00,69.8,63.7,28.44,West,265,0.0,0.0,81,0.00,,---,0.00,VWS V14.01,2013-06-28 08:18:00,
2013-06-28 03:23:00,69.4,63.4,28.44,West,265,0.0,0.0,81,0.00,,---,0.00,VWS V14.01,2013-06-28 08:23:00,
2013-06-28 03:29:00,69.3,63.5,28.44,West,265,0.0,0.0,82,0.00,,---,0.00,VWS V14.01,2013-06-28 08:29:00,
2013-06-28 03:34:00,69.1,63.4,28.44,West,265,0.0,0.0,82,0.00,,---,0.00,VWS V14.01,2013-06-28 08:34:00,
2013-06-28 03:39:00,69.1,63.4,28.44,West,265,0.0,0.0,82,0.00,,---,0.00,VWS V14.01,2013-06-28 08:39:00,
2013-06-28 03:44:00,68.9,63.2,28.44,West,265,0.0,0.0,82,0.00,,---,0.00,VWS V14.01,2013-06-28 08:44:00,
2013-06-28 03:49:00,68.9,63.5,28.44,West,265,0.0,0.0,83,0.00,,---,0.00,VWS V14.01,2013-06-28 08:49:00,
2013-06-28 03:54:00,68.7,63.3,28.44,West,265,0.0,0.0,83,0.00,,---,0.00,VWS V14.01,2013-06-28 08:54:00,
2013-06-28 03:59:00,68.7,63.7,28.44,West,265,0.0,0.0,84,0.00,,---,0.00,VWS V14.01,2013-06-28 08:59:00,
2013-06-28 04:04:00,68.5,63.9,28.44,West,265,0.0,0.0,85,0.00,,---,0.00,VWS V14.01,2013-06-28 09:04:00,
2013-06-28 04:09:00,68.5,64.2,28.44,West,265,0.0,0.0,86,0.00,,---,0.00,VWS V14.01,2013-06-28 09:09:00,
2013-06-28 04:15:00,68.4,64.0,28.44,West,265,0.0,0.0,86,0.00,,---,0.00,VWS V14.01,2013-06-28 09:15:00,
2013-06-28 04:20:00,68.2,63.8,28.44,West,265,0.0,0.0,86,0.00,,---,0.00,VWS V14.01,2013-06-28 09:20:00,
2013-06-28 04:25:00,68.2,63.8,28.44,West,265,0.0,0.0,86,0.00,,---,0.00,VWS V14.01,2013-06-28 09:25:00,
2013-06-28 04:30:00,68.2,64.2,28.44,West,265,0.0,0.0,87,0.00,,---,0.00,VWS V14.01,2013-06-28 09:30:00,
2013-06-28 04:35:00,68.0,64.0,28.44,West,265,0.0,0.0,87,0.00,,---,0.00,VWS V14.01,2013-06-28 09:35:00,
2013-06-28 04:40:00,68.0,64.0,28.44,West,265,0.0,0.0,87,0.00,,---,0.00,VWS V14.01,2013-06-28 09:40:00,
2013-06-28 04:45:00,67.8,63.8,28.44,West,265,0.0,0.0,87,0.00,,---,0.00,VWS V14.01,2013-06-28 09:45:00,
2013-06-28 04:50:00,67.8,64.1,28.44,West,265,0.0,0.0,88,0.00,,---,0.00,VWS V14.01,2013-06-28 09:50:00,
2013-06-28 04:56:00,67.6,64.0,28.44,West,265,0.0,0.0,88,0.00,,---,0.00,VWS V14.01,2013-06-28 09:56:00,
2013-06-28 05:01:00,67.6,64.0,28.44,West,265,0.0,0.0,88,0.00,,---,0.00,VWS V14.01,2013-06-28 10:01:00,
2013-06-28 05:06:00,67.5,64.1,28.44,West,265,2.7,2.7,89,0.00,,---,0.00,VWS V14.01,2013-06-28 10:06:00,
2013-06-28 05:11:00,67.5,64.1,28.44,West,266,0.0,3.6,89,0.00,,---,0.00,VWS V14.01,2013-06-28 10:11:00,
2013-06-28 05:16:00,67.5,64.4,28.44,West,266,0.0,3.6,90,0.00,,---,0.00,VWS V14.01,2013-06-28 10:16:00,
2013-06-28 05:21:00,67.5,64.8,28.44,WSW,254,0.0,3.6,91,0.00,,---,0.00,VWS V14.01,2013-06-28 10:21:00,
2013-06-28 05:26:00,67.5,65.1,28.44,WSW,254,0.0,3.6,92,0.00,,---,0.00,VWS V14.01,2013-06-28 10:26:00,
2013-06-28 05:31:00,67.5,65.1,28.44,WSW,254,0.0,3.6,92,0.00,,---,0.00,VWS V14.01,2013-06-28 10:31:00,
2013-06-28 05:37:00,67.3,64.9,28.44,WSW,254,0.0,3.6,92,0.00,,---,0.00,VWS V14.01,2013-06-28 10:37:00,
2013-06-28 05:42:00,67.3,64.9,28.44,West,261,0.0,3.6,92,0.00,,---,0.00,VWS V14.01,2013-06-28 10:42:00,
2013-06-28 05:47:00,67.1,64.7,28.44,West,261,0.0,3.6,92,0.00,,---,0.00,VWS V14.01,2013-06-28 10:47:00,
2013-06-28 05:52:00,67.1,64.7,28.44,West,261,0.0,3.6,92,0.00,,---,0.00,VWS V14.01,2013-06-28 10:52:00,
2013-06-28 05:57:00,67.1,64.7,28.44,West,261,0.0,3.6,92,0.00,,---,0.00,VWS V14.01,2013-06-28 10:57:00,
2013-06-28 06:02:00,67.1,65.0,28.44,West,261,0.0,0.0,93,0.00,,---,0.00,VWS V14.01,2013-06-28 11:02:00,
2013-06-28 06:07:00,67.1,65.0,28.44,West,261,0.0,3.1,93,0.00,,---,0.00,VWS V14.01,2013-06-28 11:07:00,
2013-06-28 06:13:00,67.1,65.0,28.44,West,261,0.0,3.1,93,0.00,,---,0.00,VWS V14.01,2013-06-28 11:13:00,
2013-06-28 06:18:00,67.1,65.0,28.44,West,263,0.0,3.1,93,0.00,,---,0.00,VWS V14.01,2013-06-28 11:18:00,
2013-06-28 06:23:00,67.1,65.3,28.47,West,271,2.2,3.6,94,0.00,,---,0.00,VWS V14.01,2013-06-28 11:23:00,
2013-06-28 06:28:00,67.1,65.3,28.47,West,260,0.0,3.6,94,0.00,,---,0.00,VWS V14.01,2013-06-28 11:28:00,
2013-06-28 06:33:00,67.3,65.5,28.47,West,268,0.0,3.6,94,0.00,,---,0.00,VWS V14.01,2013-06-28 11:33:00,
2013-06-28 06:38:00,67.3,65.5,28.47,WNW,289,0.0,3.6,94,0.00,,---,0.00,VWS V14.01,2013-06-28 11:38:00,
2013-06-28 06:43:00,67.3,65.5,28.47,West,273,0.0,3.6,94,0.00,,---,0.00,VWS V14.01,2013-06-28 11:43:00,
2013-06-28 06:48:00,67.5,65.7,28.47,WNW,282,0.0,3.6,94,0.00,,---,0.00,VWS V14.01,2013-06-28 11:48:00,
2013-06-28 06:53:00,67.5,65.7,28.47,West,263,0.0,4.0,94,0.00,,---,0.00,VWS V14.01,2013-06-28 11:53:00,
2013-06-28 06:59:00,67.5,65.7,28.47,West,264,0.0,4.0,94,0.00,,---,0.00,VWS V14.01,2013-06-28 11:59:00,
2013-06-28 07:04:00,67.6,65.6,28.47,West,260,0.0,3.6,93,0.00,,---,0.00,VWS V14.01,2013-06-28 12:04:00,
2013-06-28 07:09:00,67.6,65.6,28.47,WSW,251,0.0,4.0,93,0.00,,---,0.00,VWS V14.01,2013-06-28 12:09:00,
2013-06-28 07:14:00,67.8,65.7,28.47,WSW,239,3.6,4.0,93,0.00,,---,0.00,VWS V14.01,2013-06-28 12:14:00,
2013-06-28 07:19:00,68.0,65.9,28.47,WSW,244,0.0,4.0,93,0.00,,---,0.00,VWS V14.01,2013-06-28 12:19:00,
2013-06-28 07:24:00,68.2,65.8,28.47,WSW,256,0.0,4.0,92,0.00,,---,0.00,VWS V14.01,2013-06-28 12:24:00,
2013-06-28 07:29:00,68.4,65.9,28.47,West,266,0.0,4.0,92,0.00,,---,0.00,VWS V14.01,2013-06-28 12:29:00,
2013-06-28 07:35:00,68.7,66.3,28.47,WNW,288,0.0,5.4,92,0.00,,---,0.00,VWS V14.01,2013-06-28 12:35:00,
2013-06-28 07:40:00,69.1,66.3,28.47,West,266,4.9,5.4,91,0.00,,---,0.00,VWS V14.01,2013-06-28 12:40:00,
2013-06-28 07:45:00,69.6,66.6,28.47,West,264,3.1,8.7,90,0.00,,---,0.00,VWS V14.01,2013-06-28 12:45:00,
2013-06-28 07:50:00,70.2,66.4,28.47,West,274,4.9,8.7,88,0.00,,---,0.00,VWS V14.01,2013-06-28 12:50:00,
2013-06-28 07:55:00,70.7,66.3,28.47,West,279,0.0,8.7,86,0.00,,---,0.00,VWS V14.01,2013-06-28 12:55:00,
2013-06-28 08:00:00,71.2,66.5,28.47,WSW,245,2.7,5.4,85,0.00,,---,0.00,VWS V14.01,2013-06-28 13:00:00,
2013-06-28 08:05:00,71.8,66.0,28.47,West,274,3.6,7.6,82,0.00,,---,0.00,VWS V14.01,2013-06-28 13:05:00,
2013-06-28 08:10:00,72.3,66.2,28.47,West,279,3.1,7.6,81,0.00,,---,0.00,VWS V14.01,2013-06-28 13:10:00,
2013-06-28 08:16:00,73.0,66.2,28.47,West,266,0.0,7.6,79,0.00,,---,0.00,VWS V14.01,2013-06-28 13:16:00,
2013-06-28 08:21:00,73.6,65.9,28.47,West,271,4.0,7.6,77,0.00,,---,0.00,VWS V14.01,2013-06-28 13:21:00,
2013-06-28 08:26:00,73.9,65.5,28.47,West,280,3.6,7.6,75,0.00,,---,0.00,VWS V14.01,2013-06-28 13:26:00,
2013-06-28 08:31:00,74.5,64.9,28.47,WNW,287,4.9,7.6,72,0.00,,---,0.00,VWS V14.01,2013-06-28 13:31:00,
2013-06-28 08:36:00,74.8,64.8,28.47,West,276,5.4,7.6,71,0.00,,---,0.00,VWS V14.01,2013-06-28 13:36:00,
2013-06-28 08:41:00,75.6,64.7,28.50,WSW,249,4.0,8.7,69,0.00,,---,0.00,VWS V14.01,2013-06-28 13:41:00,
2013-06-28 08:46:00,76.1,65.2,28.50,West,277,0.0,8.7,69,0.00,,---,0.00,VWS V14.01,2013-06-28 13:46:00,
2013-06-28 08:51:00,76.8,65.5,28.50,WSW,256,5.4,8.7,68,0.00,,---,0.00,VWS V14.01,2013-06-28 13:51:00,
2013-06-28 08:57:00,77.5,65.7,28.50,WSW,246,5.8,8.7,67,0.00,,---,0.00,VWS V14.01,2013-06-28 13:57:00,
2013-06-28 09:02:00,78.3,66.0,28.50,WSW,254,3.6,5.4,66,0.00,,---,0.00,VWS V14.01,2013-06-28 14:02:00,
2013-06-28 09:07:00,78.8,65.6,28.47,WNW,289,2.7,7.2,64,0.00,,---,0.00,VWS V14.01,2013-06-28 14:07:00,
2013-06-28 09:12:00,79.5,66.3,28.47,West,271,3.6,7.2,64,0.00,,---,0.00,VWS V14.01,2013-06-28 14:12:00,
2013-06-28 09:17:00,80.1,65.9,28.47,West,277,0.0,7.2,62,0.00,,---,0.00,VWS V14.01,2013-06-28 14:17:00,
2013-06-28 09:22:00,81.0,65.8,28.47,SW,221,0.0,7.2,60,0.00,,---,0.00,VWS V14.01,2013-06-28 14:22:00,
2013-06-28 09:27:00,81.7,65.0,28.47,West,280,2.7,7.2,57,0.00,,---,0.00,VWS V14.01,2013-06-28 14:27:00,
2013-06-28 09:32:00,82.6,65.3,28.47,WSW,257,0.0,8.3,56,0.00,,---,0.00,VWS V14.01,2013-06-28 14:32:00,
2013-06-28 09:37:00,82.9,64.6,28.47,WNW,291,2.7,8.3,54,0.00,,---,0.00,VWS V14.01,2013-06-28 14:37:00,
2013-06-28 09:43:00,83.3,64.4,28.47,WSW,252,4.9,8.3,53,0.00,,---,0.00,VWS V14.01,2013-06-28 14:43:00,
2013-06-28 09:48:00,83.7,64.2,28.47,West,268,0.0,8.3,52,0.00,,---,0.00,VWS V14.01,2013-06-28 14:48:00,
2013-06-28 09:53:00,84.0,62.8,28.47,WNW,303,2.7,8.3,49,0.00,,---,0.00,VWS V14.01,2013-06-28 14:53:00,
2013-06-28 09:58:00,84.2,63.0,28.47,NW,306,2.7,8.3,49,0.00,,---,0.00,VWS V14.01,2013-06-28 14:58:00,
2013-06-28 10:03:00,84.6,63.9,28.47,West,269,2.7,5.8,50,0.00,,---,0.00,VWS V14.01,2013-06-28 15:03:00,
2013-06-28 10:08:00,85.3,63.4,28.47,North,7,4.0,5.8,48,0.00,,---,0.00,VWS V14.01,2013-06-28 15:08:00,
2013-06-28 10:13:00,85.5,63.0,28.47,WNW,287,4.0,8.1,47,0.00,,---,0.00,VWS V14.01,2013-06-28 15:13:00,
2013-06-28 10:18:00,85.5,63.5,28.47,WSW,252,4.9,8.1,48,0.00,,---,0.00,VWS V14.01,2013-06-28 15:18:00,
2013-06-28 10:24:00,86.0,62.8,28.47,West,280,2.7,8.1,46,0.00,,---,0.00,VWS V14.01,2013-06-28 15:24:00,
2013-06-28 10:29:00,86.4,63.8,28.47,West,270,3.1,8.1,47,0.00,,---,0.00,VWS V14.01,2013-06-28 15:29:00,
2013-06-28 10:34:00,86.5,63.3,28.47,NW,317,3.6,8.1,46,0.00,,---,0.00,VWS V14.01,2013-06-28 15:34:00,
2013-06-28 10:39:00,86.9,64.3,28.47,NNW,334,2.7,8.1,47,0.00,,---,0.00,VWS V14.01,2013-06-28 15:39:00,
2013-06-28 10:44:00,86.9,63.7,28.47,WNW,299,3.1,8.1,46,0.00,,---,0.00,VWS V14.01,2013-06-28 15:44:00,
2013-06-28 10:49:00,87.3,65.2,28.47,WNW,297,2.2,8.1,48,0.00,,---,0.00,VWS V14.01,2013-06-28 15:49:00,
2013-06-28 10:55:00,87.6,64.9,28.47,WNW,303,3.6,8.1,47,0.00,,---,0.00,VWS V14.01,2013-06-28 15:55:00,
2013-06-28 11:00:00,87.6,64.3,28.47,NW,305,2.7,8.1,46,0.00,,---,0.00,VWS V14.01,2013-06-28 16:00:00,
2013-06-28 11:05:00,87.8,63.8,28.47,NW,314,3.6,5.8,45,0.00,,---,0.00,VWS V14.01,2013-06-28 16:05:00,
2013-06-28 11:10:00,87.8,61.9,28.47,WNW,302,2.7,8.3,42,0.00,,---,0.00,VWS V14.01,2013-06-28 16:10:00,
2013-06-28 11:15:00,87.8,61.9,28.47,WSW,257,3.1,8.3,42,0.00,,---,0.00,VWS V14.01,2013-06-28 16:15:00,
2013-06-28 11:20:00,87.8,61.9,28.47,North,353,2.7,8.3,42,0.00,,---,0.00,VWS V14.01,2013-06-28 16:20:00,
2013-06-28 11:25:00,88.0,63.4,28.47,West,281,3.6,8.3,44,0.00,,---,0.00,VWS V14.01,2013-06-28 16:25:00,
2013-06-28 11:30:00,88.3,62.4,28.47,North,357,2.7,8.3,42,0.00,,---,0.00,VWS V14.01,2013-06-28 16:30:00,
2013-06-28 11:36:00,88.5,62.5,28.47,North,357,3.6,8.3,42,0.00,,---,0.00,VWS V14.01,2013-06-28 16:36:00,
2013-06-28 11:41:00,88.9,62.8,28.47,WSW,256,3.6,8.3,42,0.00,,---,0.00,VWS V14.01,2013-06-28 16:41:00,
2013-06-28 11:46:00,89.2,61.8,28.47,NNW,343,2.7,8.3,40,0.00,,---,0.00,VWS V14.01,2013-06-28 16:46:00,
2013-06-28 11:51:00,89.6,62.1,28.47,NE,44,4.0,8.3,40,0.00,,---,0.00,VWS V14.01,2013-06-28 16:51:00,
2013-06-28 11:56:00,90.1,61.1,28.47,NW,320,3.1,10.1,38,0.00,,---,0.00,VWS V14.01,2013-06-28 16:56:00,
2013-06-28 12:01:00,90.0,61.0,28.47,WNW,295,4.0,4.0,38,0.00,,---,0.00,VWS V14.01,2013-06-28 17:01:00,
2013-06-28 12:06:00,89.6,57.5,28.47,NW,310,3.6,5.4,34,0.00,,---,0.00,VWS V14.01,2013-06-28 17:06:00,
2013-06-28 12:11:00,89.8,55.1,28.47,WNW,288,3.6,5.8,31,0.00,,---,0.00,VWS V14.01,2013-06-28 17:11:00,
2013-06-28 12:17:00,90.1,56.3,28.47,WSW,250,8.7,8.7,32,0.00,,---,0.00,VWS V14.01,2013-06-28 17:17:00,
2013-06-28 12:22:00,90.3,55.6,28.47,NW,319,6.3,8.7,31,0.00,,---,0.00,VWS V14.01,2013-06-28 17:22:00,
2013-06-28 12:27:00,90.5,54.9,28.47,NNW,328,2.2,8.7,30,0.00,,---,0.00,VWS V14.01,2013-06-28 17:27:00,
2013-06-28 12:32:00,90.5,55.8,28.47,WNW,299,3.6,8.7,31,0.00,,---,0.00,VWS V14.01,2013-06-28 17:32:00,
2013-06-28 12:37:00,90.7,55.9,28.47,NNE,30,3.1,8.7,31,0.00,,---,0.00,VWS V14.01,2013-06-28 17:37:00,
2013-06-28 12:42:00,90.9,55.2,28.47,North,6,4.0,9.6,30,0.00,,---,0.00,VWS V14.01,2013-06-28 17:42:00,
2013-06-28 12:47:00,90.9,54.2,28.47,NE,37,4.0,9.6,29,0.00,,---,0.00,VWS V14.01,2013-06-28 17:47:00,
2013-06-28 12:53:00,90.9,55.2,28.47,NE,39,5.4,9.6,30,0.00,,---,0.00,VWS V14.01,2013-06-28 17:53:00,
2013-06-28 12:58:00,91.4,53.8,28.47,NW,324,3.6,9.6,28,0.00,,---,0.00,VWS V14.01,2013-06-28 17:58:00,
2013-06-28 13:03:00,91.4,53.8,28.47,North,353,2.7,5.8,28,0.00,,---,0.00,VWS V14.01,2013-06-28 18:03:00,
2013-06-28 13:08:00,91.8,54.0,28.44,NW,310,3.1,7.6,28,0.00,,---,0.00,VWS V14.01,2013-06-28 18:08:00,
2013-06-28 13:13:00,91.9,54.2,28.44,West,272,0.0,7.6,28,0.00,,---,0.00,VWS V14.01,2013-06-28 18:13:00,
2013-06-28 13:18:00,91.8,53.1,28.44,NNW,332,2.7,7.6,27,0.00,,---,0.00,VWS V14.01,2013-06-28 18:18:00,
2013-06-28 13:23:00,91.8,53.1,28.44,NE,56,5.4,11.0,27,0.00,,---,0.00,VWS V14.01,2013-06-28 18:23:00,
2013-06-28 13:28:00,92.1,53.4,28.44,WNW,289,3.1,11.0,27,0.00,,---,0.00,VWS V14.01,2013-06-28 18:28:00,
2013-06-28 13:34:00,92.5,53.7,28.44,NW,309,5.8,11.0,27,0.00,,---,0.00,VWS V14.01,2013-06-28 18:34:00,
2013-06-28 13:39:00,92.7,53.8,28.44,North,353,5.4,11.0,27,0.00,,---,0.00,VWS V14.01,2013-06-28 18:39:00,
2013-06-28 13:44:00,92.8,54.0,28.44,NNE,20,8.7,11.0,27,0.00,,---,0.00,VWS V14.01,2013-06-28 18:44:00,
2013-06-28 13:49:00,93.2,53.2,28.44,NE,53,3.1,11.0,26,0.00,,---,0.00,VWS V14.01,2013-06-28 18:49:00,
2013-06-28 13:54:00,93.4,52.3,28.44,North,357,3.6,11.0,25,0.00,,---,0.00,VWS V14.01,2013-06-28 18:54:00,
2013-06-28 13:59:00,93.2,52.2,28.44,WNW,295,3.6,11.0,25,0.00,,---,0.00,VWS V14.01,2013-06-28 18:59:00,
2013-06-28 14:04:00,92.8,53.0,28.44,WNW,288,3.6,5.4,26,0.00,,---,0.00,VWS V14.01,2013-06-28 19:04:00,
2013-06-28 14:10:00,92.7,51.7,28.44,NNE,16,2.2,5.4,25,0.00,,---,0.00,VWS V14.01,2013-06-28 19:10:00,
2013-06-28 14:15:00,92.7,50.6,28.44,West,275,2.7,5.4,24,0.00,,---,0.00,VWS V14.01,2013-06-28 19:15:00,
2013-06-28 14:20:00,92.7,49.5,28.44,North,0,3.1,6.3,23,0.00,,---,0.00,VWS V14.01,2013-06-28 19:20:00,
2013-06-28 14:25:00,92.7,50.6,28.44,SW,234,3.1,6.3,24,0.00,,---,0.00,VWS V14.01,2013-06-28 19:25:00,
2013-06-28 14:30:00,92.8,50.8,28.44,East,86,2.7,9.6,24,0.00,,---,0.00,VWS V14.01,2013-06-28 19:30:00,
2013-06-28 14:35:00,93.0,48.6,28.44,East,87,3.1,9.6,22,0.00,,---,0.00,VWS V14.01,2013-06-28 19:35:00,
2013-06-28 14:41:00,93.0,49.8,28.41,NNW,333,3.1,9.6,23,0.00,,---,0.00,VWS V14.01,2013-06-28 19:41:00,
2013-06-28 14:46:00,93.2,48.7,28.41,North,353,3.1,9.6,22,0.00,,---,0.00,VWS V14.01,2013-06-28 19:46:00,
2013-06-28 14:51:00,93.4,50.1,28.41,NNE,14,3.6,9.6,23,0.00,,---,0.00,VWS V14.01,2013-06-28 19:51:00,
2013-06-28 14:56:00,93.6,47.8,28.41,NNW,339,3.1,9.6,21,0.00,,---,0.00,VWS V14.01,2013-06-28 19:56:00,
2013-06-28 15:01:00,93.7,49.2,28.41,NW,325,3.6,5.4,22,0.00,,---,0.00,VWS V14.01,2013-06-28 20:01:00,
2013-06-28 15:06:00,93.4,47.7,28.41,NNW,330,3.6,5.4,21,0.00,,---,0.00,VWS V14.01,2013-06-28 20:06:00,
2013-06-28 15:11:00,93.2,47.5,28.41,West,270,2.2,5.8,21,0.00,,---,0.00,VWS V14.01,2013-06-28 20:11:00,
2013-06-28 15:16:00,92.8,47.2,28.41,NW,326,2.7,5.8,21,0.00,,---,0.00,VWS V14.01,2013-06-28 20:16:00,
2013-06-28 15:22:00,92.3,48.0,28.41,North,3,5.8,5.8,22,0.00,,---,0.00,VWS V14.01,2013-06-28 20:22:00,
2013-06-28 15:27:00,92.1,46.6,28.41,WNW,300,3.1,5.8,21,0.00,,---,0.00,VWS V14.01,2013-06-28 20:27:00,
2013-06-28 15:32:00,91.9,46.5,28.41,NW,305,3.6,5.8,21,0.00,,---,0.00,VWS V14.01,2013-06-28 20:32:00,
2013-06-28 15:37:00,92.1,46.6,28.41,NW,314,4.0,6.3,21,0.00,,---,0.00,VWS V14.01,2013-06-28 20:37:00,
2013-06-28 15:42:00,92.1,46.6,28.41,North,10,3.1,6.3,21,0.00,,---,0.00,VWS V14.01,2013-06-28 20:42:00,
2013-06-28 15:47:00,91.9,46.5,28.41,WNW,298,2.7,6.3,21,0.00,,---,0.00,VWS V14.01,2013-06-28 20:47:00,
2013-06-28 15:52:00,91.6,46.2,28.41,NW,315,3.6,8.3,21,0.00,,---,0.00,VWS V14.01,2013-06-28 20:52:00,
2013-06-28 15:57:00,91.4,46.0,28.41,NNW,336,3.6,8.3,21,0.00,,---,0.00,VWS V14.01,2013-06-28 20:57:00,
2013-06-28 16:03:00,91.4,47.2,28.41,NNW,341,3.1,6.3,22,0.00,,---,0.00,VWS V14.01,2013-06-28 21:03:00,
2013-06-28 16:08:00,91.4,46.0,28.41,WNW,294,0.0,6.3,21,0.00,,---,0.00,VWS V14.01,2013-06-28 21:08:00,
2013-06-28 16:13:00,91.2,47.1,28.41,WSW,249,3.1,6.3,22,0.00,,---,0.00,VWS V14.01,2013-06-28 21:13:00,
2013-06-28 16:18:00,91.2,47.1,28.41,NNE,19,3.1,6.3,22,0.00,,---,0.00,VWS V14.01,2013-06-28 21:18:00,
2013-06-28 16:23:00,91.0,47.0,28.41,SE,136,3.6,7.6,22,0.00,,---,0.00,VWS V14.01,2013-06-28 21:23:00,
2013-06-28 16:28:00,90.9,46.8,28.41,North,353,7.6,8.3,22,0.00,,---,0.00,VWS V14.01,2013-06-28 21:28:00,
2013-06-28 16:33:00,90.9,46.8,28.41,NE,47,2.7,8.3,22,0.00,,---,0.00,VWS V14.01,2013-06-28 21:33:00,
2013-06-28 16:39:00,90.9,46.8,28.38,North,1,0.0,8.3,22,0.00,,---,0.00,VWS V14.01,2013-06-28 21:39:00,
2013-06-28 16:44:00,90.9,46.8,28.38,NNE,19,2.7,8.3,22,0.00,,---,0.00,VWS V14.01,2013-06-28 21:44:00,
2013-06-28 16:49:00,90.7,47.8,28.38,NNE,26,2.2,8.3,23,0.00,,---,0.00,VWS V14.01,2013-06-28 21:49:00,
2013-06-28 16:54:00,90.7,46.7,28.38,NNE,21,3.1,8.3,22,0.00,,---,0.00,VWS V14.01,2013-06-28 21:54:00,
2013-06-28 16:59:00,90.7,46.7,28.38,West,276,0.0,8.3,22,0.00,,---,0.00,VWS V14.01,2013-06-28 21:59:00,
2013-06-28 17:04:00,90.7,47.8,28.38,NNW,344,0.0,8.7,23,0.00,,---,0.00,VWS V14.01,2013-06-28 22:04:00,
2013-06-28 17:09:00,90.7,47.8,28.38,North,11,5.8,8.7,23,0.00,,---,0.00,VWS V14.01,2013-06-28 22:09:00,
2013-06-28 17:14:00,90.7,46.7,28.38,NNE,23,2.7,8.7,22,0.00,,---,0.00,VWS V14.01,2013-06-28 22:14:00,
2013-06-28 17:19:00,90.7,46.7,28.38,SW,227,0.0,8.7,22,0.00,,---,0.00,VWS V14.01,2013-06-28 22:19:00,
2013-06-28 17:25:00,90.7,46.7,28.38,SSE,164,0.0,8.7,22,0.00,,---,0.00,VWS V14.01,2013-06-28 22:25:00,
2013-06-28 17:30:00,90.3,46.3,28.38,WNW,299,4.0,8.7,22,0.00,,---,0.00,VWS V14.01,2013-06-28 22:30:00,
2013-06-28 17:35:00,90.3,46.3,28.38,NNE,12,5.8,8.7,22,0.00,,---,0.00,VWS V14.01,2013-06-28 22:35:00,
2013-06-28 17:40:00,90.3,46.3,28.38,North,0,0.0,8.7,22,0.00,,---,0.00,VWS V14.01,2013-06-28 22:40:00,
2013-06-28 17:45:00,90.1,46.2,28.38,NNE,23,4.9,8.7,22,0.00,,---,0.00,VWS V14.01,2013-06-28 22:45:00,
2013-06-28 17:50:00,90.1,46.2,28.38,North,5,3.6,8.7,22,0.00,,---,0.00,VWS V14.01,2013-06-28 22:50:00,
2013-06-28 17:55:00,90.1,46.2,28.38,North,357,2.2,8.7,22,0.00,,---,0.00,VWS V14.01,2013-06-28 22:55:00,
2013-06-28 18:01:00,90.1,46.2,28.38,NNW,341,0.0,4.9,22,0.00,,---,0.00,VWS V14.01,2013-06-28 23:01:00,
2013-06-28 18:06:00,90.1,46.2,28.38,NNE,12,3.6,4.9,22,0.00,,---,0.00,VWS V14.01,2013-06-28 23:06:00,
2013-06-28 18:11:00,90.1,47.4,28.38,NNW,332,2.7,4.9,23,0.00,,---,0.00,VWS V14.01,2013-06-28 23:11:00,
2013-06-28 18:16:00,90.1,46.2,28.38,NNW,348,4.0,4.9,22,0.00,,---,0.00,VWS V14.01,2013-06-28 23:16:00,
2013-06-28 18:21:00,90.1,46.2,28.38,North,0,2.2,7.6,22,0.00,,---,0.00,VWS V14.01,2013-06-28 23:21:00,
2013-06-28 18:26:00,89.8,45.9,28.38,NW,316,4.0,7.6,22,0.00,,---,0.00,VWS V14.01,2013-06-28 23:26:00,
2013-06-28 18:31:00,89.6,45.8,28.38,NW,316,2.2,7.6,22,0.00,,---,0.00,VWS V14.01,2013-06-28 23:31:00,
2013-06-28 18:37:00,89.4,45.6,28.38,North,357,5.4,7.6,22,0.00,,---,0.00,VWS V14.01,2013-06-28 23:37:00,
2013-06-28 18:42:00,89.2,45.5,28.38,North,353,0.0,7.6,22,0.00,,---,0.00,VWS V14.01,2013-06-28 23:42:00,
2013-06-28 18:47:00,89.2,45.5,28.38,NW,305,2.7,7.6,22,0.00,,---,0.00,VWS V14.01,2013-06-28 23:47:00,
2013-06-28 18:52:00,89.2,46.6,28.38,NW,312,3.1,7.6,23,0.00,,---,0.00,VWS V14.01,2013-06-28 23:52:00,
2013-06-28 18:57:00,89.1,45.3,28.38,NNW,334,3.1,7.6,22,0.00,,---,0.00,VWS V14.01,2013-06-28 23:57:00,
2013-06-28 19:02:00,88.9,45.2,28.38,NW,321,4.9,5.8,22,0.00,,---,0.00,VWS V14.01,2013-06-29 00:02:00,
2013-06-28 19:07:00,88.9,45.2,28.38,WNW,300,0.0,5.8,22,0.00,,---,0.00,VWS V14.01,2013-06-29 00:07:00,
2013-06-28 19:12:00,88.7,45.0,28.38,NE,47,5.4,5.8,22,0.00,,---,0.00,VWS V14.01,2013-06-29 00:12:00,
2013-06-28 19:18:00,88.7,45.0,28.38,WSW,244,0.0,5.8,22,0.00,,---,0.00,VWS V14.01,2013-06-29 00:18:00,
2013-06-28 19:23:00,88.5,44.9,28.38,WNW,298,3.1,5.8,22,0.00,,---,0.00,VWS V14.01,2013-06-29 00:23:00,
2013-06-28 19:28:00,88.3,43.5,28.38,South,186,0.0,5.8,21,0.00,,---,0.00,VWS V14.01,2013-06-29 00:28:00,
2013-06-28 19:33:00,88.2,43.3,28.38,North,2,0.0,5.8,21,0.00,,---,0.00,VWS V14.01,2013-06-29 00:33:00,
2013-06-28 19:38:00,88.0,43.2,28.38,North,0,2.7,7.2,21,0.00,,---,0.00,VWS V14.01,2013-06-29 00:38:00,
2013-06-28 19:43:00,87.8,43.0,28.38,NNE,24,2.7,7.2,21,0.00,,---,0.00,VWS V14.01,2013-06-29 00:43:00,
2013-06-28 19:48:00,87.6,44.1,28.38,SW,224,2.2,7.2,22,0.00,,---,0.00,VWS V14.01,2013-06-29 00:48:00,
2013-06-28 19:53:00,87.4,42.8,28.38,North,353,0.0,7.2,21,0.00,,---,0.00,VWS V14.01,2013-06-29 00:53:00,
2013-06-28 19:59:00,87.3,42.6,28.38,WNW,287,0.0,7.2,21,0.00,,---,0.00,VWS V14.01,2013-06-29 00:59:00,
2013-06-28 20:04:00,87.1,43.7,28.38,North,0,0.0,5.4,22,0.00,,---,0.00,VWS V14.01,2013-06-29 01:04:00,
2013-06-28 20:09:00,86.9,43.5,28.38,NNE,15,0.0,5.4,22,0.00,,---,0.00,VWS V14.01,2013-06-29 01:09:00,
2013-06-28 20:14:00,86.7,43.4,28.38,North,353,0.0,5.4,22,0.00,,---,0.00,VWS V14.01,2013-06-29 01:14:00,
2013-06-28 20:19:00,86.4,43.1,28.38,NNE,19,0.0,5.4,22,0.00,,---,0.00,VWS V14.01,2013-06-29 01:19:00,
2013-06-28 20:24:00,86.0,42.8,28.38,North,0,3.6,5.4,22,0.00,,---,0.00,VWS V14.01,2013-06-29 01:24:00,
2013-06-28 20:29:00,85.6,43.6,28.38,North,0,2.7,5.4,23,0.00,,---,0.00,VWS V14.01,2013-06-29 01:29:00,
2013-06-28 20:34:00,85.3,43.3,28.38,NNE,18,0.0,5.4,23,0.00,,---,0.00,VWS V14.01,2013-06-29 01:34:00,
2013-06-28 20:40:00,84.9,43.0,28.38,NNE,24,0.0,5.4,23,0.00,,---,0.00,VWS V14.01,2013-06-29 01:40:00,
2013-06-28 20:45:00,84.6,43.8,28.38,North,0,0.0,5.4,24,0.00,,---,0.00,VWS V14.01,2013-06-29 01:45:00,
2013-06-28 20:50:00,84.2,43.5,28.38,North,0,0.0,5.4,24,0.00,,---,0.00,VWS V14.01,2013-06-29 01:50:00,
2013-06-28 20:55:00,83.7,44.2,28.38,NW,307,4.9,5.4,25,0.00,,---,0.00,VWS V14.01,2013-06-29 01:55:00,
2013-06-28 21:00:00,83.3,43.8,28.38,NW,313,0.0,0.0,25,0.00,,---,0.00,VWS V14.01,2013-06-29 02:00:00,
2013-06-28 21:05:00,82.9,43.5,28.38,NNW,346,0.0,3.6,25,0.00,,---,0.00,VWS V14.01,2013-06-29 02:05:00,
2013-06-28 21:10:00,82.6,44.3,28.38,NNW,346,0.0,3.6,26,0.00,,---,0.00,VWS V14.01,2013-06-29 02:10:00,
2013-06-28 21:15:00,82.2,44.9,28.38,North,0,0.0,4.0,27,0.00,,---,0.00,VWS V14.01,2013-06-29 02:15:00,
2013-06-28 21:21:00,81.9,45.6,28.38,North,0,0.0,4.0,28,0.00,,---,0.00,VWS V14.01,2013-06-29 02:21:00,
2013-06-28 21:26:00,81.5,46.2,28.38,North,357,0.0,4.0,29,0.00,,---,0.00,VWS V14.01,2013-06-29 02:26:00,
2013-06-28 21:31:00,81.0,45.8,28.38,North,357,0.0,4.0,29,0.00,,---,0.00,VWS V14.01,2013-06-29 02:31:00,
2013-06-28 21:36:00,80.8,45.6,28.38,North,357,0.0,4.0,29,0.00,,---,0.00,VWS V14.01,2013-06-29 02:36:00,
2013-06-28 21:41:00,80.4,46.2,28.38,North,357,0.0,4.0,30,0.00,,---,0.00,VWS V14.01,2013-06-29 02:41:00,
2013-06-28 21:46:00,80.1,45.9,28.38,North,357,0.0,4.0,30,0.00,,---,0.00,VWS V14.01,2013-06-29 02:46:00,
2013-06-28 21:51:00,79.9,45.7,28.38,North,357,0.0,4.0,30,0.00,,---,0.00,VWS V14.01,2013-06-29 02:51:00,
2013-06-28 21:57:00,79.5,45.4,28.38,North,357,0.0,4.0,30,0.00,,---,0.00,VWS V14.01,2013-06-29 02:57:00,
2013-06-28 22:02:00,79.3,46.1,28.38,North,357,0.0,0.0,31,0.00,,---,0.00,VWS V14.01,2013-06-29 03:02:00,
2013-06-28 22:07:00,79.2,46.0,28.41,North,357,0.0,0.0,31,0.00,,---,0.00,VWS V14.01,2013-06-29 03:07:00,
2013-06-28 22:12:00,78.8,45.6,28.41,North,357,0.0,0.0,31,0.00,,---,0.00,VWS V14.01,2013-06-29 03:12:00,
2013-06-28 22:17:00,78.6,45.5,28.41,North,4,0.0,4.0,31,0.00,,---,0.00,VWS V14.01,2013-06-29 03:17:00,
2013-06-28 22:22:00,78.4,45.3,28.41,North,4,0.0,4.0,31,0.00,,---,0.00,VWS V14.01,2013-06-29 03:22:00,
2013-06-28 22:27:00,78.3,45.2,28.41,North,4,0.0,4.0,31,0.00,,---,0.00,VWS V14.01,2013-06-29 03:27:00,
2013-06-28 22:32:00,77.9,45.7,28.41,North,4,0.0,4.0,32,0.00,,---,0.00,VWS V14.01,2013-06-29 03:32:00,
2013-06-28 22:38:00,77.7,45.5,28.41,North,4,0.0,4.0,32,0.00,,---,0.00,VWS V14.01,2013-06-29 03:38:00,
2013-06-28 22:43:00,77.5,45.4,28.41,North,4,0.0,4.0,32,0.00,,---,0.00,VWS V14.01,2013-06-29 03:43:00,
2013-06-28 22:48:00,77.2,45.1,28.41,North,4,0.0,4.0,32,0.00,,---,0.00,VWS V14.01,2013-06-29 03:48:00,
2013-06-28 22:53:00,76.8,45.6,28.41,North,4,0.0,4.0,33,0.00,,---,0.00,VWS V14.01,2013-06-29 03:53:00,
2013-06-28 22:58:00,76.5,45.2,28.41,North,4,0.0,4.0,33,0.00,,---,0.00,VWS V14.01,2013-06-29 03:58:00,
2013-06-28 23:01:00,76.3,45.9,28.41,North,4,0.0,0.0,34,0.00,,---,0.00,VWS V14.01,2013-06-29 04:01:00,
2013-06-28 23:02:00,76.3,45.9,28.41,North,4,0.0,0.0,34,0.00,,---,0.00,VWS V14.01,2013-06-29 04:02:00,
2013-06-28 23:07:00,75.9,45.6,28.41,North,4,0.0,0.0,34,0.00,,---,0.00,VWS V14.01,2013-06-29 04:07:00,
2013-06-28 23:12:00,75.6,46.0,28.41,North,4,0.0,0.0,35,0.00,,---,0.00,VWS V14.01,2013-06-29 04:12:00,
2013-06-28 23:17:00,75.2,46.4,28.41,North,4,0.0,0.0,36,0.00,,---,0.00,VWS V14.01,2013-06-29 04:17:00,
2013-06-28 23:22:00,74.8,46.1,28.41,North,4,0.0,0.0,36,0.00,,---,0.00,VWS V14.01,2013-06-29 04:22:00,
2013-06-28 23:27:00,74.5,46.5,28.41,North,4,0.0,0.0,37,0.00,,---,0.00,VWS V14.01,2013-06-29 04:27:00,
2013-06-28 23:32:00,74.1,46.9,28.41,North,4,0.0,0.0,38,0.00,,---,0.00,VWS V14.01,2013-06-29 04:32:00,
2013-06-28 23:37:00,73.6,47.8,28.41,North,4,0.0,0.0,40,0.00,,---,0.00,VWS V14.01,2013-06-29 04:37:00,
2013-06-28 23:43:00,73.4,47.6,28.41,North,4,0.0,0.0,40,0.00,,---,0.00,VWS V14.01,2013-06-29 04:43:00,
2013-06-28 23:48:00,73.0,48.0,28.41,North,4,0.0,0.0,41,0.00,,---,0.00,VWS V14.01,2013-06-29 04:48:00,
2013-06-28 23:53:00,72.7,48.3,28.38,North,4,0.0,0.0,42,0.00,,---,0.00,VWS V14.01,2013-06-29 04:53:00,
2013-06-28 23:58:00,72.5,48.1,28.38,North,4,0.0,0.0,42,0.00,,---,0.00,VWS V14.01,2013-06-29 04:58:00,